Flag for United Kingdom Weather past 2 weeks in Truro, England, United Kingdom

Now
52 °F

Cloudy.


Feels Like: 46 °F
Forecast: 47 / 55 °F
Wind: 21 mph from Southwest

Location: Culdrose

Current Time: May 3, 2015 at 9:59:34 PM

Latest Report: May 3, 2015 at 8:50 PM


Visibility: 4 mi

Pressure: 29.50 "Hg

Humidity: 94%

Dew point: 50 °F

Location of TruroLocation

Historic Weather in Truro — Graph

°F

Truro temperature yesterday

Maximum temperature yesterday: 54 °F (at 9:50 AM)
Minimum temperature yesterday: 48 °F (at 12:50 AM)
Average temperature yesterday: 52 °F

Past Weeks' High & Low Weather Summary

 TemperatureHumidityPressure
High59 °F (Apr 20, 4:50 PM)100% (Apr 20, 5:50 AM)30.48 "Hg (Apr 20, 5:50 AM)
Low36 °F (Apr 20, 5:50 AM)45% (Apr 21, 1:50 PM)29.33 "Hg (May 3, 3:50 AM)
Average49 °F81%29.95 "Hg
* Reported Apr 18 8:50 PM — May 3 8:50 PM, Truro, Weather by CustomWeather, © 2015

Note: Actual official high and low records may vary slightly from our data, if they occured in-between our weather recording intervals... More about our weather records

Advertising

Truro weather history for previous 24 hours

 ConditionsComfort  
Time TempWeatherWind HumidityBarometerVisibility
8:50 PM
Sun, May 3
52 °FCloudy.21 mph94%29.50 "Hg4 mi
7:50 PM54 °FBroken clouds.21 mph88%29.50 "Hg4 mi
6:50 PM54 °FMostly cloudy.21 mph94%29.47 "Hg3 mi
5:50 PM54 °FMostly cloudy.21 mph94%29.45 "Hg4 mi
4:50 PM54 °FMore clouds than sun.22 mph94%29.45 "Hg4 mi
3:50 PM54 °FMostly cloudy.18 mph94%29.45 "Hg4 mi
2:50 PM54 °FFog.22 mph100%29.45 "Hg3 mi
1:50 PM54 °FSprinkles. More clouds than sun.17 mph94%29.45 "Hg1 mi
12:50 PM55 °FBroken clouds.16 mph88%29.45 "Hg3 mi
11:50 AM55 °FFog.15 mph94%29.45 "Hg2 mi
10:50 AM54 °FFog.13 mph100%29.45 "Hg0 mi
9:50 AM54 °FFog.14 mph100%29.42 "Hg0 mi
8:50 AM52 °FDense fog.16 mph100%29.42 "Hg0 mi
7:50 AM52 °FFog.13 mph100%29.39 "Hg0 mi
6:50 AM52 °FFog.10 mph100%29.39 "Hg0 mi
5:50 AM52 °FFog.12 mph100%29.36 "Hg0 mi
4:50 AM52 °FFog.9 mph100%29.33 "Hg0 mi
3:50 AM52 °FFog.13 mph100%29.33 "Hg0 mi
2:50 AM52 °FLow clouds.17 mph100%29.36 "Hg1 mi
1:50 AM52 °FLow clouds.14 mph100%29.36 "Hg1 mi
12:50 AM52 °FPassing clouds.8 mph100%29.39 "Hg1 mi
11:50 PM
Sat, May 2
52 °FFog.8 mph100%29.42 "Hg0 mi
10:50 PM52 °FFog.7 mph100%29.42 "Hg0 mi
9:50 PM52 °FFog.7 mph100%29.45 "Hg0 mi
Weather by CustomWeather, © 2015

See weather overviewHow to use our weather pages